Location: Raleigh
(35.7720°N, 78.6390°W)
Time: 12:46:21
(UTC-05:00)

Amateur Radio Satellites - All Passes

Search period start: 17 December 2017 12:16
Search period end: 18 December 2017 12:16
Location: Raleigh, 35.7720°N, 78.6390°W

Satellite Date Start Highest point End Downlink Frequencies (MHz)
Time Altitude Azimuth
BUGSAT 1 17 Dec 12:21:34 12:25:30 54° 75° (ENE) 12:29:26 437.445
NANOSAT C BR1 17 Dec 12:22:05 12:25:31 25° 264° (W) 12:28:59 145.865
Oscar 19 17 Dec 12:32:36 12:37:24 43° 72° (ENE) 12:42:16 437.125/150
NO-84 17 Dec 12:36:14 12:39:40 33° 41° (NE) 12:43:20 435.350 FM
YUBILEINY 17 Dec 12:37:48 12:43:57 20° 68° (ENE) 12:50:02 435.215
LO-87 17 Dec 12:40:43 12:41:41 11° 292° (WNW) 12:42:40 145.935 - 145.965
EO-79 17 Dec 12:41:01 12:43:09 14° 267° (W) 12:45:16 145.935-145.965
VELOX 1 17 Dec 13:02:54 13:07:18 81° 104° (ESE) 13:11:40 145.980
SPROUT 17 Dec 13:20:02 13:23:51 33° 288° (WNW) 13:27:40 437.525
RS-15 17 Dec 13:20:17 13:31:47 49° 109° (ESE) 13:43:17 29.354- 29.394
SO-50 17 Dec 13:27:04 13:29:19 14° 108° (ESE) 13:31:34 436.795
UKube-1 17 Dec 13:27:38 13:30:21 16° 94° (E) 13:33:03 .
AO-91 17 Dec 13:32:55 13:37:34 42° 260° (W) 13:41:49 145.960
AO-7 17 Dec 13:35:14 13:42:04 30° 60° (ENE) 13:48:56 .
Gurwin Techsat 1B 17 Dec 13:38:49 13:44:02 59° 259° (W) 13:49:18 435.225
DX 1 17 Dec 13:48:48 13:53:02 50° 100° (E) 13:57:13 434.975-435.025
ITAMSAT 1 17 Dec 13:54:12 13:56:44 14° 63° (ENE) 13:59:15 435.822/435.867
Oscar 19 17 Dec 14:13:17 14:16:52 19° 266° (W) 14:20:30 437.125/150
NO-84 17 Dec 14:13:37 14:16:51 25° 234° (SW) 14:20:14 435.350 FM
50 SAT 17 Dec 14:20:38 14:23:37 41° 286° (WNW) 14:26:35 437.505
YUBILEINY 17 Dec 14:32:48 14:41:36 76° 267° (W) 14:50:19 435.215
M-CUBED/EXP-1 PRIME 17 Dec 14:34:57 14:39:10 52° 69° (ENE) 14:43:37 437.505
BEESAT 17 Dec 14:40:18 14:43:08 16° 93° (E) 14:45:57 436.000
UKube-1 17 Dec 15:02:30 15:06:26 35° 288° (WNW) 15:10:21 .
SO-50 17 Dec 15:04:57 15:09:16 50° 303° (WNW) 15:13:39 436.795
ITUPSAT 1 17 Dec 15:09:38 15:13:54 32° 98° (E) 15:18:09 437.325
DOVE 4 17 Dec 15:20:39 15:24:15 19° 68° (ENE) 15:27:46 437.250
CUBESAT XI-V 17 Dec 15:23:19 15:26:14 16° 93° (E) 15:29:09 437.345
AO-7 17 Dec 15:26:11 15:34:18 58° 257° (WSW) 15:42:30 .
DX 1 17 Dec 15:26:49 15:28:43 13° 295° (WNW) 15:30:37 434.975-435.025
MOZHAYETS 4 17 Dec 15:27:08 15:31:47 84° 102° (ESE) 15:36:25
ITAMSAT 1 17 Dec 15:30:23 15:35:34 67° 258° (WSW) 15:40:46 435.822/435.867
RS-15 17 Dec 15:32:25 15:44:14 50° 309° (NW) 15:56:01 29.354- 29.394
nSIGHT-1 17 Dec 15:32:44 15:33:17 10° 22° (NNE) 15:33:51 .
M-CUBED/EXP-1 PRIME 17 Dec 16:11:44 16:13:49 13° 264° (W) 16:15:55 437.505
BEESAT 17 Dec 16:16:32 16:21:05 46° 288° (WNW) 16:25:37 436.000
ISS 17 Dec 16:24:57 16:27:24 19° 30° (NNE) 16:29:51 437.550
XW-2C 17 Dec 16:31:36 16:33:04 12° 67° (ENE) 16:34:31 145.795 - 145.815
YUBILEINY 17 Dec 16:34:21 16:36:46 11° 284° (WNW) 16:39:11 435.215
HO-68 17 Dec 16:36:40 16:39:26 13° 55° (NE) 16:42:10 435.675
ITUPSAT 1 17 Dec 16:47:47 16:51:30 23° 292° (WNW) 16:55:14 437.325
KKS-1 17 Dec 16:53:40 16:57:22 26° 97° (E) 17:01:04 437.445
DOVE 4 17 Dec 16:56:28 17:01:32 47° 261° (W) 17:06:28 437.250
CUBESAT XI-V 17 Dec 16:59:19 17:03:46 42° 287° (WNW) 17:08:11 437.345
nSIGHT-1 17 Dec 17:06:52 17:10:04 60° 41° (NE) 17:13:13 .
LilacSat-2 17 Dec 17:09:51 17:13:26 40° 74° (ENE) 17:17:03 437.200
NUDT-PHONESAT 17 Dec 17:10:00 17:12:58 23° 71° (ENE) 17:15:57 437.300
PCSat 17 Dec 17:11:57 17:16:40 31° 108° (ESE) 17:21:24 145.827
KAITUO 1B 17 Dec 17:19:17 17:22:39 33° 73° (ENE) 17:26:03 145.475/437.950
XW-2D 17 Dec 17:19:28 17:23:09 51° 75° (ENE) 17:26:51 145.860 - 145.880
CUTE-I 17 Dec 17:19:42 17:24:47 46° 71° (ENE) 17:29:53 437.470
STARS 17 Dec 17:27:17 17:30:46 23° 96° (E) 17:34:15 437.465
O/OREOS (USA 219) 17 Dec 17:31:20 17:35:35 41° 66° (ENE) 17:39:48 437.305
XW-2B 17 Dec 17:35:22 17:39:08 82° 77° (ENE) 17:42:58 145.730 - 145.750
XW-2F 17 Dec 17:44:26 17:48:11 80° 256° (WSW) 17:52:00 145.980 - 146.000
SEEDS 17 Dec 17:46:36 17:48:58 15° 67° (ENE) 17:51:21 437.485
RS-15 17 Dec 17:53:09 18:00:46 18° 339° (NNW) 18:08:18 29.354- 29.394
ISS 17 Dec 18:00:53 18:04:02 43° 226° (SW) 18:07:09 437.550
CUBEBUG 2 17 Dec 18:02:04 18:05:15 21° 70° (ENE) 18:08:25 437.445
XW-2C 17 Dec 18:03:15 18:06:49 39° 262° (W) 18:10:25 145.795 - 145.815
CUTE 1.7 + AOD 2 17 Dec 18:14:11 18:18:19 53° 75° (ENE) 18:22:29 437.475
HO-68 17 Dec 18:18:46 18:25:56 75° 72° (ENE) 18:33:07 435.675
XW-2A 17 Dec 18:26:53 18:28:34 13° 69° (ENE) 18:30:17 145.665 - 145.685
KKS-1 17 Dec 18:30:14 18:33:47 24° 291° (WNW) 18:37:18 437.445
STRAND 1 17 Dec 18:43:07 18:46:39 19° 94° (E) 18:50:09 437.568
NUDT-PHONESAT 17 Dec 18:44:10 18:46:43 18° 265° (W) 18:49:18 437.300
AO-73 17 Dec 18:44:37 18:47:03 16° 68° (ENE) 18:49:32 145.935
nSIGHT-1 17 Dec 18:45:41 18:45:50 10° 234° (SW) 18:45:59 .
LilacSat-2 17 Dec 18:46:45 18:47:52 11° 268° (W) 18:48:58 437.200
KAITUO 1B 17 Dec 18:54:56 18:56:42 13° 267° (W) 18:58:28 145.475/437.950
PCSat 17 Dec 18:55:11 18:59:58 31° 304° (NW) 19:04:46 145.827
CUTE-I 17 Dec 19:01:13 19:04:59 19° 266° (W) 19:08:47 437.470
STARS 17 Dec 19:03:24 19:07:00 26° 290° (WNW) 19:10:37 437.465
O/OREOS (USA 219) 17 Dec 19:12:03 19:14:34 15° 261° (W) 19:17:05 437.305
BEESAT 3 17 Dec 19:13:18 19:17:16 89° 296° (WNW) 19:21:17 437.485
SEEDS 17 Dec 19:20:17 19:24:15 40° 261° (W) 19:28:16 437.485
FO-29 17 Dec 19:27:06 19:31:15 18° 89° (E) 19:35:06 435.910
AAUSAT CUBESAT 2 17 Dec 19:28:20 19:32:30 82° 259° (WSW) 19:36:42 437.432
UWE-3 17 Dec 19:29:52 19:33:58 60° 260° (W) 19:38:03 435.000/436.395/437.385
CUBEBUG 2 17 Dec 19:38:15 19:41:44 25° 264° (W) 19:45:11 437.445
ZACube-1 17 Dec 19:47:00 19:51:07 78° 258° (WSW) 19:55:17 437.345
FALCONSAT 3 17 Dec 19:49:11 19:51:52 19° 153° (SSE) 19:54:34 435.103
CUTE 1.7 + AOD 2 17 Dec 19:53:38 19:54:25 10° 269° (W) 19:55:13 437.475
XW-2A 17 Dec 19:58:11 20:00:59 25° 263° (W) 20:03:50 145.665 - 145.685
DELFI C3 17 Dec 20:00:10 20:02:01 13° 67° (ENE) 20:03:52 145.870
Oscar 11 17 Dec 20:00:20 20:04:38 82° 76° (ENE) 20:08:58 .
BEESAT 2 17 Dec 20:01:36 20:05:35 81° 117° (ESE) 20:09:38 435.950
HO-68 17 Dec 20:09:48 20:14:13 17° 268° (W) 20:18:40 435.675
RS-15 17 Dec 20:13:31 20:20:27 16° 17° (NNE) 20:27:12 29.354- 29.394
AO-85 17 Dec 20:18:11 20:21:16 23° 111° (ESE) 20:24:27 145.980
AO-73 17 Dec 20:19:12 20:22:58 35° 262° (W) 20:26:47 145.935
STRAND 1 17 Dec 20:21:10 20:25:58 43° 288° (WNW) 20:30:45 437.568
Max Valier Satellite 17 Dec 20:58:58 21:02:27 43° 74° (ENE) 21:05:56 145.860
FO-29 17 Dec 21:10:25 21:16:55 59° 288° (WNW) 21:22:38 435.910
TIGRISAT 17 Dec 21:16:57 21:20:25 22° 96° (E) 21:23:56 435.000
EO-88 17 Dec 21:18:33 21:22:05 53° 76° (ENE) 21:25:39 145.990 - 145.960
UNISAT 6 17 Dec 21:20:58 21:24:44 27° 97° (E) 21:28:35 437.425
FALCONSAT 3 17 Dec 21:26:58 21:30:35 59° 167° (SSE) 21:34:14 435.103
DELFI C3 17 Dec 21:32:35 21:36:21 40° 261° (W) 21:40:08 145.870
AO-85 17 Dec 21:58:18 22:01:31 24° 308° (NW) 22:04:53 145.980
RS-15 17 Dec 22:26:05 22:37:16 45° 49° (NE) 22:47:50 29.354- 29.394
PRISM 17 Dec 22:30:21 22:34:15 43° 99° (E) 22:38:06 437.425
ESTCUBE 1 17 Dec 22:39:16 22:43:36 49° 74° (ENE) 22:47:59 437.505/2401.250
TIGRISAT 17 Dec 22:53:19 22:57:02 28° 289° (WNW) 23:00:49 435.000
UNISAT 6 17 Dec 22:57:51 23:01:17 23° 290° (WNW) 23:04:47 437.425
FALCONSAT 3 17 Dec 23:05:57 23:09:38 87° 182° (S) 23:13:19 435.103
LO-87 17 Dec 23:11:11 23:14:31 40° 261° (W) 23:17:52 145.935 - 145.965
POLYITAN 1 17 Dec 23:15:34 23:18:09 16° 94° (E) 23:20:45 437.675
AIST 2D 17 Dec 23:33:04 23:36:37 75° 281° (WNW) 23:40:07 435.315
SO-50 17 Dec 23:38:25 23:43:05 62° 58° (ENE) 23:47:47 436.795
DUCHIFAT 1 17 Dec 23:40:05 23:43:27 23° 96° (E) 23:46:48 145.980
QB50P2 17 Dec 23:40:30 23:44:23 35° 98° (E) 23:48:17 145.880/145.840
VELOX 1 17 Dec 23:56:50 00:01:07 48° 73° (ENE) 00:05:25 145.980
PRISM 18 Dec 00:07:14 00:09:05 13° 294° (WNW) 00:10:57 437.425
NANOSAT C BR1 18 Dec 00:08:01 00:12:11 60° 100° (E) 00:16:20 145.865
SPROUT 18 Dec 00:09:32 00:13:44 67° 258° (WSW) 00:17:58 437.525
ESTCUBE 1 18 Dec 00:18:33 00:20:38 13° 268° (W) 00:22:44 437.505/2401.250
UKube-1 18 Dec 00:21:29 00:22:07 10° 64° (ENE) 00:22:44 .
EO-79 18 Dec 00:25:50 00:30:02 70° 285° (WNW) 00:34:14 145.935-145.965
RS-15 18 Dec 00:38:47 00:49:46 51° 251° (WSW) 01:00:15 29.354- 29.394
DX 1 18 Dec 00:41:29 00:45:18 30° 71° (ENE) 00:49:08 434.975-435.025
50 SAT 18 Dec 00:43:38 00:46:18 25° 73° (ENE) 00:48:58 437.505
FALCONSAT 3 18 Dec 00:45:03 00:48:38 49° 197° (SSW) 00:52:12 435.103
Oscar 19 18 Dec 00:47:49 00:51:28 19° 94° (E) 00:55:07 437.125/150
POLYITAN 1 18 Dec 00:50:08 00:54:01 36° 288° (WNW) 00:57:53 437.675
DUCHIFAT 1 18 Dec 01:15:35 01:18:59 24° 290° (WNW) 01:22:23 145.980
QB50P2 18 Dec 01:17:12 01:19:52 17° 292° (WNW) 01:22:32 145.880/145.840
SO-50 18 Dec 01:21:02 01:23:01 12° 252° (WSW) 01:25:00 436.795
AO-91 18 Dec 01:25:51 01:29:01 37° 99° (E) 01:32:12 145.960
YUBILEINY 18 Dec 01:35:25 01:42:12 26° 83° (E) 01:49:00 435.215
VELOX 1 18 Dec 01:35:46 01:37:46 13° 267° (W) 01:39:47 145.980
BUGSAT 1 18 Dec 01:40:52 01:44:51 54° 285° (WNW) 01:48:50 437.445
BEESAT 18 Dec 01:44:39 01:47:03 14° 64° (ENE) 01:49:28 436.000
NANOSAT C BR1 18 Dec 01:46:59 01:47:19 10° 295° (WNW) 01:47:40 145.865
UKube-1 18 Dec 01:53:16 01:57:32 63° 259° (WSW) 02:01:50 .
Gurwin Techsat 1B 18 Dec 01:57:49 02:03:08 70° 102° (ESE) 02:08:25 435.225
PCSat 18 Dec 02:03:14 02:06:31 16° 48° (NE) 02:09:47 145.827
JUGNU 18 Dec 02:09:14 02:11:45 13° 170° (S) 02:14:17 437.505
ITUPSAT 1 18 Dec 02:13:42 02:17:42 28° 69° (ENE) 02:21:42 437.325
50 SAT 18 Dec 02:17:14 02:18:13 11° 266° (W) 02:19:13 437.505
DX 1 18 Dec 02:18:15 02:21:28 20° 265° (W) 02:24:41 434.975-435.025
CUBESAT XI-V 18 Dec 02:25:03 02:26:52 12° 64° (ENE) 02:28:42 437.345
FALCONSAT 3 18 Dec 02:25:09 02:27:15 15° 210° (SSW) 02:29:22 435.103
MOZHAYETS 4 18 Dec 02:25:51 02:30:17 55° 74° (ENE) 02:34:45
Oscar 19 18 Dec 02:26:01 02:30:56 44° 288° (WNW) 02:35:50 437.125/150
BEESAT 18 Dec 03:19:40 03:24:18 55° 259° (W) 03:28:58 436.000
YUBILEINY 18 Dec 03:29:36 03:38:16 61° 280° (W) 03:47:01 435.215
AO-7 18 Dec 03:30:47 03:39:03 59° 104° (ESE) 03:47:15 .
BEESAT 3 18 Dec 03:33:04 03:36:04 20° 51° (NE) 03:39:01 437.485
Gurwin Techsat 1B 18 Dec 03:39:55 03:42:25 14° 298° (WNW) 03:44:55 435.225
PCSat 18 Dec 03:45:03 03:50:28 72° 246° (WSW) 03:55:50 145.827
ITAMSAT 1 18 Dec 03:46:08 03:51:12 54° 101° (E) 03:56:15 435.822/435.867
KKS-1 18 Dec 03:49:28 03:52:29 18° 67° (ENE) 03:55:30 437.445
M-CUBED/EXP-1 PRIME 18 Dec 03:50:24 03:54:44 59° 105° (ESE) 03:58:43 437.505
ITUPSAT 1 18 Dec 03:51:28 03:55:25 26° 263° (W) 03:59:24 437.325
JUGNU 18 Dec 03:56:27 03:59:58 16° 180° (S) 04:03:29 437.505
CUBESAT XI-V 18 Dec 03:59:03 04:03:38 62° 259° (W) 04:08:18 437.345
MOZHAYETS 4 18 Dec 04:06:10 04:07:44 12° 269° (W) 04:09:17
STARS 18 Dec 04:21:54 04:24:28 15° 66° (ENE) 04:27:03 437.465
BEESAT 2 18 Dec 04:22:23 04:25:21 20° 51° (NE) 04:28:18 435.950
AO-85 18 Dec 04:51:23 04:54:09 15° 47° (NE) 04:57:01 145.980
SRMSAT 18 Dec 04:52:09 04:54:34 12° 168° (SSE) 04:56:59 437.500
DOVE 4 18 Dec 04:58:36 05:02:54 58° 100° (E) 05:07:00 437.250
BEESAT 3 18 Dec 05:10:13 05:13:34 28° 247° (WSW) 05:16:52 437.485
XW-2B 18 Dec 05:13:12 05:13:54 10° 92° (E) 05:14:35 145.730 - 145.750
XW-2F 18 Dec 05:20:48 05:22:31 13° 93° (E) 05:24:13 145.980 - 146.000
AO-7 18 Dec 05:24:23 05:31:15 30° 300° (WNW) 05:38:08 .
KKS-1 18 Dec 05:24:37 05:28:44 36° 261° (W) 05:32:51 437.445
NO-84 18 Dec 05:25:58 05:28:47 49° 317° (NW) 05:31:46 435.350 FM
M-CUBED/EXP-1 PRIME 18 Dec 05:26:47 05:28:27 12° 302° (WNW) 05:30:04 437.505
ITAMSAT 1 18 Dec 05:27:01 05:30:10 17° 296° (WNW) 05:33:20 435.822/435.867
XW-2C 18 Dec 05:38:37 05:41:47 24° 96° (E) 05:44:55 145.795 - 145.815
CUTE-I 18 Dec 05:40:14 05:44:23 23° 95° (E) 05:48:29 437.470
JUGNU 18 Dec 05:45:35 05:48:11 13° 190° (S) 05:50:49 437.505
HO-68 18 Dec 05:52:00 05:55:57 15° 92° (E) 05:59:52 435.675
STARS 18 Dec 05:56:17 06:00:25 41° 261° (W) 06:04:35 437.465
STRAND 1 18 Dec 05:56:20 06:00:05 21° 67° (ENE) 06:03:50 437.568
BEESAT 2 18 Dec 05:59:33 06:03:06 31° 247° (WSW) 06:06:36 435.950
CUTE 1.7 + AOD 2 18 Dec 06:03:59 06:05:27 12° 91° (E) 06:06:56 437.475
NUDT-PHONESAT 18 Dec 06:15:28 06:19:07 47° 99° (E) 06:22:43 437.300
LilacSat-2 18 Dec 06:19:29 06:23:23 86° 282° (WNW) 06:27:14 437.200
KAITUO 1B 18 Dec 06:26:15 06:30:03 73° 103° (ESE) 06:33:47 145.475/437.950
XW-2D 18 Dec 06:28:25 06:32:14 68° 284° (WNW) 06:36:01 145.860 - 145.880
AO-85 18 Dec 06:30:06 06:35:01 74° 242° (WSW) 06:40:13 145.980
SRMSAT 18 Dec 06:39:16 06:42:57 17° 178° (S) 06:46:39 437.500
DOVE 4 18 Dec 06:39:19 06:39:57 10° 297° (WNW) 06:40:35 437.250
XW-2B 18 Dec 06:44:35 06:48:15 43° 286° (WNW) 06:51:52 145.730 - 145.750
XW-2F 18 Dec 06:53:12 06:56:42 35° 287° (WNW) 07:00:11 145.980 - 146.000
SEEDS 18 Dec 07:06:36 07:10:35 38° 98° (E) 07:14:30 437.485
XW-2C 18 Dec 07:12:59 07:15:46 19° 290° (WNW) 07:18:32 145.795 - 145.815
AAUSAT CUBESAT 2 18 Dec 07:14:02 07:16:58 18° 94° (E) 07:19:52 437.432
FO-29 18 Dec 07:16:30 07:23:54 49° 70° (ENE) 07:31:19 435.910
CUTE-I 18 Dec 07:19:35 07:24:29 38° 290° (WNW) 07:29:21 437.470
UWE-3 18 Dec 07:21:51 07:25:48 32° 98° (E) 07:29:49 435.000/436.395/437.385
XW-2A 18 Dec 07:22:12 07:24:48 20° 96° (E) 07:27:24 145.665 - 145.685
CUBEBUG 2 18 Dec 07:30:17 07:34:38 76° 102° (ESE) 07:39:06 437.445
STRAND 1 18 Dec 07:34:09 07:38:56 40° 261° (W) 07:43:45 437.568
HO-68 18 Dec 07:37:09 07:44:19 81° 287° (WNW) 07:51:27 435.675
CUTE 1.7 + AOD 2 18 Dec 07:37:23 07:41:31 49° 285° (WNW) 07:45:38 437.475
ZACube-1 18 Dec 07:38:04 07:41:44 25° 96° (E) 07:45:26 437.345
O/OREOS (USA 219) 18 Dec 07:40:13 07:44:48 87° 107° (ESE) 07:49:23 437.305
Oscar 11 18 Dec 07:51:14 07:54:18 19° 94° (E) 07:57:23 .
AO-73 18 Dec 08:08:58 08:13:16 50° 99° (E) 08:17:38 145.935
TIGRISAT 18 Dec 08:14:14 08:16:22 14° 67° (ENE) 08:18:30 435.000
UNISAT 6 18 Dec 08:17:58 08:20:43 17° 68° (ENE) 08:23:28 437.425
SRMSAT 18 Dec 08:28:16 08:31:22 14° 189° (S) 08:34:28 437.500
SEEDS 18 Dec 08:43:26 08:45:53 15° 293° (WNW) 08:48:19 437.485
AAUSAT CUBESAT 2 18 Dec 08:48:48 08:52:24 29° 288° (WNW) 08:55:57 437.432
XW-2A 18 Dec 08:54:58 08:57:19 18° 290° (WNW) 08:59:40 145.665 - 145.685
UWE-3 18 Dec 08:58:50 09:02:01 20° 291° (WNW) 09:05:14 435.000/436.395/437.385
FO-29 18 Dec 09:02:09 09:08:56 33° 265° (W) 09:15:50 435.910
ISS 18 Dec 09:02:53 09:05:25 21° 130° (SE) 09:08:00 437.550
DELFI C3 18 Dec 09:12:10 09:15:33 27° 96° (E) 09:18:55 145.870
ZACube-1 18 Dec 09:14:15 09:17:53 25° 289° (WNW) 09:21:33 437.345
PRISM 18 Dec 09:17:01 09:20:11 21° 69° (ENE) 09:23:21 437.425
Oscar 11 18 Dec 09:26:35 09:30:27 32° 288° (WNW) 09:34:18 .
HO-68 18 Dec 09:27:42 09:30:55 14° 304° (NW) 09:34:07 435.675
nSIGHT-1 18 Dec 09:41:33 09:44:45 89° 104° (ESE) 09:47:58 .
AO-73 18 Dec 09:46:54 09:49:03 13° 293° (WNW) 09:51:13 145.935
TIGRISAT 18 Dec 09:48:34 09:52:39 43° 261° (W) 09:56:43 435.000
UNISAT 6 18 Dec 09:53:13 09:57:08 34° 262° (W) 10:01:02 437.425
AIST 2D 18 Dec 10:04:35 10:07:21 22° 71° (ENE) 10:10:07 435.315
Max Valier Satellite 18 Dec 10:04:43 10:08:28 86° 284° (WNW) 10:12:12 145.860
EO-88 18 Dec 10:23:00 10:26:39 74° 283° (WNW) 10:30:18 145.990 - 145.960
DUCHIFAT 1 18 Dec 10:30:38 10:32:16 12° 66° (ENE) 10:33:54 145.980
QB50P2 18 Dec 10:30:53 10:33:49 19° 69° (ENE) 10:36:46 145.880/145.840
ESTCUBE 1 18 Dec 10:36:16 10:38:22 13° 92° (E) 10:40:28 437.505/2401.250
ISS 18 Dec 10:38:48 10:41:47 31° 325° (NW) 10:44:45 437.550
LO-87 18 Dec 10:41:10 10:43:31 17° 95° (E) 10:45:53 145.935 - 145.965
DELFI C3 18 Dec 10:47:25 10:50:03 17° 291° (WNW) 10:52:40 145.870
PRISM 18 Dec 10:51:47 10:55:16 26° 263° (W) 10:58:46 437.425
NANOSAT C BR1 18 Dec 10:57:17 11:00:53 29° 71° (ENE) 11:04:30 145.865
EO-79 18 Dec 11:14:55 11:19:00 56° 75° (ENE) 11:23:06 145.935-145.965
nSIGHT-1 18 Dec 11:19:49 11:21:21 13° 335° (NNW) 11:22:53 .
AIST 2D 18 Dec 11:38:06 11:40:26 17° 266° (W) 11:42:46 435.315
POLYITAN 1 18 Dec 11:39:01 11:43:11 73° 259° (W) 11:47:22 437.675
VELOX 1 18 Dec 11:52:04 11:53:17 11° 92° (E) 11:54:29 145.980
SPROUT 18 Dec 11:58:16 12:01:44 24° 96° (E) 12:05:11 437.525
NO-84 18 Dec 12:00:09 12:03:17 25° 39° (NE) 12:06:36 435.350 FM
Oscar 19 18 Dec 12:01:59 12:05:49 22° 66° (ENE) 12:09:41 437.125/150
DUCHIFAT 1 18 Dec 12:03:27 12:07:27 48° 261° (W) 12:11:29 145.980
QB50P2 18 Dec 12:05:40 12:09:21 30° 263° (W) 12:13:04 145.880/145.840
